Terminal Aerodrome Forecast
Issued by NWS La Crosse, WI

Home | Current Version | Previous Version | Text Only | Print | Product List | Glossary On
Versions: 1 2 3 4 5 6 7 8 9 10 11 12 13 14 15 16 17 18 19 20 21 22 23 24 25 26 27 28 29 30 31 32 33 34 35 36 37 38 39 40 41 42 43 44 45 46 47 48
000
FTUS43 KARX 301242 AAA
TAFRST
TAF AMD
KRST 301242Z 3013/0112 07012KT P6SM BKN018
     FM301700 08018G24KT P6SM BKN040
     FM302100 07015G23KT P6SM -SHRA BKN035
     FM010100 05011KT P6SM VCSH BKN035=

USA.gov is the U.S. government's official web portal to all federal, state and local government web resources and services.